View from above orbital plane
|
View from above satellite
|
Ground track
|
The orbit data is extracted from the following two-line orbital elements,
1 15392U 84115B 13141.47880145 .00000259 00000-0 10137-3 0 796
2 15392 021.4911 268.3468 1035214 106.7597 322.5538 12.45323195298392
| Epoch (UTC): | 21 May 2013 11:29:28 |
| Eccentricity: | 0.1035214 |
| inclination: | 21.4911° |
| perigee height: | 670 km |
| apogee height: | 2298 km |
| right ascension of ascending node: | 268.3468° |
| argument of perigee: | 106.7597° |
| revolutions per day: | 12.45323195 |
| mean anomaly at epoch: | 322.5538° |
| orbit number at epoch: | 29839 |
The dashed part of the orbit path shows where the satellite is in the earth's shadow,
|
|